Year,Month,Day,Hour,Minute,Value (Times are PST for temperature in C)
2018,08,07,00,00,20.20
2018,08,07,00,01,20.20
2018,08,07,00,02,20.20
2018,08,07,00,03,20.20
2018,08,07,00,04,20.20
2018,08,07,00,05,20.20
2018,08,07,00,06,20.20
2018,08,07,00,07,20.20
2018,08,07,00,08,20.20
2018,08,07,00,09,20.20
2018,08,07,00,10,20.20
2018,08,07,00,11,20.20
2018,08,07,00,12,20.20
2018,08,07,00,13,20.20
2018,08,07,00,14,20.20
2018,08,07,00,15,20.20
2018,08,07,00,16,20.30
2018,08,07,00,17,20.30
2018,08,07,00,18,20.30
2018,08,07,00,19,20.40
2018,08,07,00,20,20.50
2018,08,07,00,21,20.60
2018,08,07,00,22,20.60
2018,08,07,00,23,20.70
2018,08,07,00,24,20.80
2018,08,07,00,25,20.90
2018,08,07,00,26,20.90
2018,08,07,00,27,21.00
2018,08,07,00,28,21.10
2018,08,07,00,29,21.20
2018,08,07,00,30,21.20
2018,08,07,00,31,21.30
2018,08,07,00,32,21.30
2018,08,07,00,33,21.40
2018,08,07,00,34,21.40
2018,08,07,00,35,21.40
2018,08,07,00,36,21.40
2018,08,07,00,37,21.40
2018,08,07,00,38,21.40
2018,08,07,00,39,21.40
2018,08,07,00,40,21.30
2018,08,07,00,41,21.30
2018,08,07,00,42,21.30
2018,08,07,00,43,21.30
2018,08,07,00,44,21.20
2018,08,07,00,45,21.20
2018,08,07,00,46,21.20
2018,08,07,00,47,21.20
2018,08,07,00,48,21.20
2018,08,07,00,49,21.20
2018,08,07,00,50,21.20
2018,08,07,00,51,21.20
2018,08,07,00,52,21.20
2018,08,07,00,53,21.20
2018,08,07,00,54,21.20
2018,08,07,00,55,21.30
2018,08,07,00,56,21.30
2018,08,07,00,57,21.30
2018,08,07,00,58,21.30
2018,08,07,00,59,21.30
2018,08,07,01,00,21.30
2018,08,07,01,01,21.30
2018,08,07,01,02,21.30
2018,08,07,01,03,21.30
2018,08,07,01,04,21.30
2018,08,07,01,05,21.30
2018,08,07,01,06,21.30
2018,08,07,01,07,21.30
2018,08,07,01,08,21.20
2018,08,07,01,09,21.20
2018,08,07,01,10,21.20
2018,08,07,01,11,21.20
2018,08,07,01,12,21.20
2018,08,07,01,13,21.20
2018,08,07,01,14,21.20
2018,08,07,01,15,21.20
2018,08,07,01,16,21.20
2018,08,07,01,17,21.10
2018,08,07,01,18,21.10
2018,08,07,01,19,21.10
2018,08,07,01,20,21.10
2018,08,07,01,21,21.10
2018,08,07,01,22,21.10
2018,08,07,01,23,21.10
2018,08,07,01,24,21.10
2018,08,07,01,25,21.20
2018,08,07,01,26,21.20
2018,08,07,01,27,21.20
2018,08,07,01,28,21.30
2018,08,07,01,29,21.30
2018,08,07,01,30,21.30
2018,08,07,01,31,21.30
2018,08,07,01,32,21.30
2018,08,07,01,33,21.30
2018,08,07,01,34,21.20
2018,08,07,01,35,21.20
2018,08,07,01,36,21.20
2018,08,07,01,37,21.20
2018,08,07,01,38,21.10
2018,08,07,01,39,21.10
2018,08,07,01,40,21.10
2018,08,07,01,41,21.00
2018,08,07,01,42,21.00
2018,08,07,01,43,20.90
2018,08,07,01,44,20.90
2018,08,07,01,45,20.90
2018,08,07,01,46,20.80
2018,08,07,01,47,20.80
2018,08,07,01,48,20.70
2018,08,07,01,49,20.70
2018,08,07,01,50,20.60
2018,08,07,01,51,20.60
2018,08,07,01,52,20.50
2018,08,07,01,53,20.50
2018,08,07,01,54,20.40
2018,08,07,01,55,20.40
2018,08,07,01,56,20.30
2018,08,07,01,57,20.30
2018,08,07,01,58,20.30
2018,08,07,01,59,20.30
2018,08,07,02,00,20.30
2018,08,07,02,01,20.30
2018,08,07,02,02,20.30
2018,08,07,02,03,20.30
2018,08,07,02,04,20.20
2018,08,07,02,05,20.20
2018,08,07,02,06,20.20
2018,08,07,02,07,20.20
2018,08,07,02,08,20.20
2018,08,07,02,09,20.20
2018,08,07,02,10,20.20
2018,08,07,02,11,20.20
2018,08,07,02,12,20.20
2018,08,07,02,13,20.20
2018,08,07,02,14,20.20
2018,08,07,02,15,20.20
2018,08,07,02,16,20.20
2018,08,07,02,17,20.20
2018,08,07,02,18,20.20
2018,08,07,02,19,20.20
2018,08,07,02,20,20.20
2018,08,07,02,21,20.20
2018,08,07,02,22,20.20
2018,08,07,02,23,20.20
2018,08,07,02,24,20.20
2018,08,07,02,25,20.20
2018,08,07,02,26,20.20
2018,08,07,02,27,20.20
2018,08,07,02,28,20.20
2018,08,07,02,29,20.20
2018,08,07,02,30,20.20
2018,08,07,02,31,20.20
2018,08,07,02,32,20.10
2018,08,07,02,33,20.10
2018,08,07,02,34,20.10
2018,08,07,02,35,20.10
2018,08,07,02,36,20.10
2018,08,07,02,37,20.10
2018,08,07,02,38,20.10
2018,08,07,02,39,20.00
2018,08,07,02,40,20.00
2018,08,07,02,41,20.00
2018,08,07,02,42,20.00
2018,08,07,02,43,19.90
2018,08,07,02,44,19.90
2018,08,07,02,45,19.90
2018,08,07,02,46,19.90
2018,08,07,02,47,19.90
2018,08,07,02,48,19.90
2018,08,07,02,49,19.90
2018,08,07,02,50,19.90
2018,08,07,02,51,19.80
2018,08,07,02,52,19.80
2018,08,07,02,53,19.80
2018,08,07,02,54,19.80
2018,08,07,02,55,19.80
2018,08,07,02,56,19.70
2018,08,07,02,57,19.70
2018,08,07,02,58,19.70
2018,08,07,02,59,19.70
2018,08,07,03,00,19.60
2018,08,07,03,01,19.60
2018,08,07,03,02,19.60
2018,08,07,03,03,19.60
2018,08,07,03,04,19.50
2018,08,07,03,05,19.50
2018,08,07,03,06,19.40
2018,08,07,03,07,19.40
2018,08,07,03,08,19.40
2018,08,07,03,09,19.40
2018,08,07,03,10,19.40
2018,08,07,03,11,19.40
2018,08,07,03,12,19.40
2018,08,07,03,13,19.40
2018,08,07,03,14,19.40
2018,08,07,03,15,19.40
2018,08,07,03,16,19.40
2018,08,07,03,17,19.40
2018,08,07,03,18,19.40
2018,08,07,03,19,19.40
2018,08,07,03,20,19.40
2018,08,07,03,21,19.40
2018,08,07,03,22,19.40
2018,08,07,03,23,19.40
2018,08,07,03,24,19.40
2018,08,07,03,25,19.40
2018,08,07,03,26,19.40
2018,08,07,03,27,19.50
2018,08,07,03,28,19.50
2018,08,07,03,29,19.40
2018,08,07,03,30,19.40
2018,08,07,03,31,19.50
2018,08,07,03,32,19.40
2018,08,07,03,33,19.40
2018,08,07,03,34,19.40
2018,08,07,03,35,19.40
2018,08,07,03,36,19.40
2018,08,07,03,37,19.40
2018,08,07,03,38,19.40
2018,08,07,03,39,19.40
2018,08,07,03,40,19.40
2018,08,07,03,41,19.40
2018,08,07,03,42,19.40
2018,08,07,03,43,19.40
2018,08,07,03,44,19.40
2018,08,07,03,45,19.30
2018,08,07,03,46,19.30
2018,08,07,03,47,19.30
2018,08,07,03,48,19.30
2018,08,07,03,49,19.30
2018,08,07,03,50,19.30
2018,08,07,03,51,19.30
2018,08,07,03,52,19.30
2018,08,07,03,53,19.30
2018,08,07,03,54,19.30
2018,08,07,03,55,19.20
2018,08,07,03,56,19.20
2018,08,07,03,57,19.20
2018,08,07,03,58,19.20
2018,08,07,03,59,19.20
2018,08,07,04,00,19.10
2018,08,07,04,01,19.10
2018,08,07,04,02,19.10
2018,08,07,04,03,19.10
2018,08,07,04,04,19.10
2018,08,07,04,05,19.00
2018,08,07,04,06,19.00
2018,08,07,04,07,19.00
2018,08,07,04,08,19.00
2018,08,07,04,09,18.90
2018,08,07,04,10,18.90
2018,08,07,04,11,18.90
2018,08,07,04,12,18.90
2018,08,07,04,13,18.80
2018,08,07,04,14,18.80
2018,08,07,04,15,18.80
2018,08,07,04,16,18.80
2018,08,07,04,17,18.80
2018,08,07,04,18,18.70
2018,08,07,04,19,18.70
2018,08,07,04,20,18.70
2018,08,07,04,21,18.70
2018,08,07,04,22,18.60
2018,08,07,04,23,18.60
2018,08,07,04,24,18.60
2018,08,07,04,25,18.60
2018,08,07,04,26,18.50
2018,08,07,04,27,18.50
2018,08,07,04,28,18.50
2018,08,07,04,29,18.50
2018,08,07,04,30,18.50
2018,08,07,04,31,18.50
2018,08,07,04,32,18.50
2018,08,07,04,33,18.50
2018,08,07,04,34,18.50
2018,08,07,04,35,18.50
2018,08,07,04,36,18.50
2018,08,07,04,37,18.50
2018,08,07,04,38,18.50
2018,08,07,04,39,18.40
2018,08,07,04,40,18.40
2018,08,07,04,41,18.40
2018,08,07,04,42,18.40
2018,08,07,04,43,18.30
2018,08,07,04,44,18.30
2018,08,07,04,45,18.30
2018,08,07,04,46,18.30
2018,08,07,04,47,18.30
2018,08,07,04,48,18.30
2018,08,07,04,49,18.30
2018,08,07,04,50,18.40
2018,08,07,04,51,18.40
2018,08,07,04,52,18.40
2018,08,07,04,53,18.40
2018,08,07,04,54,18.40
2018,08,07,04,55,18.40
2018,08,07,04,56,18.40
2018,08,07,04,57,18.40
2018,08,07,04,58,18.40
2018,08,07,04,59,18.40
2018,08,07,05,00,18.40
2018,08,07,05,01,18.40
2018,08,07,05,02,18.40
2018,08,07,05,03,18.30
2018,08,07,05,04,18.30
2018,08,07,05,05,18.30
2018,08,07,05,06,18.30
2018,08,07,05,07,18.30
2018,08,07,05,08,18.30
2018,08,07,05,09,18.20
2018,08,07,05,10,18.20
2018,08,07,05,11,18.20
2018,08,07,05,12,18.20
2018,08,07,05,13,18.20
2018,08,07,05,14,18.20
2018,08,07,05,15,18.10
2018,08,07,05,16,18.10
2018,08,07,05,17,18.10
2018,08,07,05,18,18.10
2018,08,07,05,19,18.10
2018,08,07,05,20,18.10
2018,08,07,05,21,18.10
2018,08,07,05,22,18.00
2018,08,07,05,23,18.00
2018,08,07,05,24,18.00
2018,08,07,05,25,17.90
2018,08,07,05,26,17.90
2018,08,07,05,27,17.90
2018,08,07,05,28,17.90
2018,08,07,05,29,17.90
2018,08,07,05,30,17.90
2018,08,07,05,31,17.90
2018,08,07,05,32,18.00
2018,08,07,05,33,18.00
2018,08,07,05,34,18.10
2018,08,07,05,35,18.10
2018,08,07,05,36,18.10
2018,08,07,05,37,18.10
2018,08,07,05,38,18.10
2018,08,07,05,39,18.10
2018,08,07,05,40,18.10
2018,08,07,05,41,18.10
2018,08,07,05,42,18.10
2018,08,07,05,43,18.10
2018,08,07,05,44,18.10
2018,08,07,05,45,18.10
2018,08,07,05,46,18.10
2018,08,07,05,47,18.10
2018,08,07,05,48,18.10
2018,08,07,05,49,18.10
2018,08,07,05,50,18.10
2018,08,07,05,51,18.10
2018,08,07,05,52,18.10
2018,08,07,05,53,18.10
2018,08,07,05,54,18.10
2018,08,07,05,55,18.10
2018,08,07,05,56,18.10
2018,08,07,05,57,18.10
2018,08,07,05,58,18.10
2018,08,07,05,59,18.10
2018,08,07,06,00,18.10
2018,08,07,06,01,18.10
2018,08,07,06,02,18.10
2018,08,07,06,03,18.10
2018,08,07,06,04,18.10
2018,08,07,06,05,18.10
2018,08,07,06,06,18.10
2018,08,07,06,07,18.10
2018,08,07,06,08,18.10
2018,08,07,06,09,18.10
2018,08,07,06,10,18.10
2018,08,07,06,11,18.10
2018,08,07,06,12,18.10
2018,08,07,06,13,18.10
2018,08,07,06,14,18.10
2018,08,07,06,15,18.10
2018,08,07,06,16,18.10
2018,08,07,06,17,18.10
2018,08,07,06,18,18.10
2018,08,07,06,19,18.10
2018,08,07,06,20,18.10
2018,08,07,06,21,18.10
2018,08,07,06,22,18.10
2018,08,07,06,23,18.20
2018,08,07,06,24,18.20
2018,08,07,06,25,18.20
2018,08,07,06,26,18.20
2018,08,07,06,27,18.20
2018,08,07,06,28,18.30
2018,08,07,06,29,18.30
2018,08,07,06,30,18.30
2018,08,07,06,31,18.30
2018,08,07,06,32,18.40
2018,08,07,06,33,18.40
2018,08,07,06,34,18.40
2018,08,07,06,35,18.50
2018,08,07,06,36,18.50
2018,08,07,06,37,18.50
2018,08,07,06,38,18.60
2018,08,07,06,39,18.60
2018,08,07,06,40,18.60
2018,08,07,06,41,18.70
2018,08,07,06,42,18.70
2018,08,07,06,43,18.70
2018,08,07,06,44,18.80
2018,08,07,06,45,18.80
2018,08,07,06,46,18.80
2018,08,07,06,47,18.80
2018,08,07,06,48,18.80
2018,08,07,06,49,18.80
2018,08,07,06,50,18.80
2018,08,07,06,51,18.90
2018,08,07,06,52,18.90
2018,08,07,06,53,18.90
2018,08,07,06,54,18.90
2018,08,07,06,55,18.90
2018,08,07,06,56,18.90
2018,08,07,06,57,18.90
2018,08,07,06,58,18.90
2018,08,07,06,59,18.90
2018,08,07,07,00,18.90
2018,08,07,07,01,18.90
2018,08,07,07,02,18.90
2018,08,07,07,03,18.90
2018,08,07,07,04,18.90
2018,08,07,07,05,18.90
2018,08,07,07,06,18.90
2018,08,07,07,07,18.90
2018,08,07,07,08,18.90
2018,08,07,07,09,18.90
2018,08,07,07,10,18.90
2018,08,07,07,11,18.90
2018,08,07,07,12,18.90
2018,08,07,07,13,18.90
2018,08,07,07,14,18.90
2018,08,07,07,15,19.00
2018,08,07,07,16,19.00
2018,08,07,07,17,19.10
2018,08,07,07,18,19.10
2018,08,07,07,19,19.10
2018,08,07,07,20,19.20
2018,08,07,07,21,19.20
2018,08,07,07,22,19.20
2018,08,07,07,23,19.20
2018,08,07,07,24,19.30
2018,08,07,07,25,19.30
2018,08,07,07,26,19.30
2018,08,07,07,27,19.40
2018,08,07,07,28,19.40
2018,08,07,07,29,19.40
2018,08,07,07,30,19.50
2018,08,07,07,31,19.50
2018,08,07,07,32,19.60
2018,08,07,07,33,19.60
2018,08,07,07,34,19.60
2018,08,07,07,35,19.70
2018,08,07,07,36,19.70
2018,08,07,07,37,19.80
2018,08,07,07,38,19.80
2018,08,07,07,39,19.80
2018,08,07,07,40,19.90
2018,08,07,07,41,19.90
2018,08,07,07,42,19.90
2018,08,07,07,43,20.00
2018,08,07,07,44,20.00
2018,08,07,07,45,20.10
2018,08,07,07,46,20.10
2018,08,07,07,47,20.10
2018,08,07,07,48,20.20
2018,08,07,07,49,20.20
2018,08,07,07,50,20.30
2018,08,07,07,51,20.30
2018,08,07,07,52,20.30
2018,08,07,07,53,20.40
2018,08,07,07,54,20.40
2018,08,07,07,55,20.40
2018,08,07,07,56,20.50
2018,08,07,07,57,20.50
2018,08,07,07,58,20.50
2018,08,07,07,59,20.50
2018,08,07,08,00,20.60
2018,08,07,08,01,20.60
2018,08,07,08,02,20.60
2018,08,07,08,03,20.60
2018,08,07,08,04,20.60
2018,08,07,08,05,20.60
2018,08,07,08,06,20.70
2018,08,07,08,07,20.60
2018,08,07,08,08,20.60
2018,08,07,08,09,20.60
2018,08,07,08,10,20.60
2018,08,07,08,11,20.60
2018,08,07,08,12,20.70
2018,08,07,08,13,20.70
2018,08,07,08,14,20.70
2018,08,07,08,15,20.70
2018,08,07,08,16,20.70
2018,08,07,08,17,20.60
2018,08,07,08,18,20.60
2018,08,07,08,19,20.60
2018,08,07,08,20,20.60
2018,08,07,08,21,20.60
2018,08,07,08,22,20.60
2018,08,07,08,23,20.60
2018,08,07,08,24,20.60
2018,08,07,08,25,20.70
2018,08,07,08,26,20.70
2018,08,07,08,27,20.70
2018,08,07,08,28,20.70
2018,08,07,08,29,20.70
2018,08,07,08,30,20.80
2018,08,07,08,31,20.80
2018,08,07,08,32,20.80
2018,08,07,08,33,20.90
2018,08,07,08,34,20.90
2018,08,07,08,35,21.00
2018,08,07,08,36,21.00
2018,08,07,08,37,21.00
2018,08,07,08,38,21.10
2018,08,07,08,39,21.10
2018,08,07,08,40,21.10
2018,08,07,08,41,21.10
2018,08,07,08,42,21.10
2018,08,07,08,43,21.10
2018,08,07,08,44,21.10
2018,08,07,08,45,21.20
2018,08,07,08,46,21.20
2018,08,07,08,47,21.20
2018,08,07,08,48,21.20
2018,08,07,08,49,21.20
2018,08,07,08,50,21.30
2018,08,07,08,51,21.30
2018,08,07,08,52,21.30
2018,08,07,08,53,21.30
2018,08,07,08,54,21.30
2018,08,07,08,55,21.30
2018,08,07,08,56,21.40
2018,08,07,08,57,21.40
2018,08,07,08,58,21.40
2018,08,07,08,59,21.30
2018,08,07,09,00,21.30
2018,08,07,09,01,21.30
2018,08,07,09,02,21.30
2018,08,07,09,03,21.30
2018,08,07,09,04,21.20
2018,08,07,09,05,21.20
2018,08,07,09,06,21.20
2018,08,07,09,07,21.20
2018,08,07,09,08,21.20
2018,08,07,09,09,21.30
2018,08,07,09,10,21.30
2018,08,07,09,11,21.30
2018,08,07,09,12,21.30
2018,08,07,09,13,21.40
2018,08,07,09,14,21.40
2018,08,07,09,15,21.50
2018,08,07,09,16,21.50
2018,08,07,09,17,21.70
2018,08,07,09,18,21.70
2018,08,07,09,19,21.80
2018,08,07,09,20,21.90
2018,08,07,09,21,22.00
2018,08,07,09,22,22.10
2018,08,07,09,23,22.10
2018,08,07,09,24,22.20
2018,08,07,09,25,22.20
2018,08,07,09,26,22.20
2018,08,07,09,27,22.20
2018,08,07,09,28,22.20
2018,08,07,09,29,22.20
2018,08,07,09,30,22.20
2018,08,07,09,31,22.20
2018,08,07,09,32,22.20
2018,08,07,09,33,22.20
2018,08,07,09,34,22.20
2018,08,07,09,35,22.30
2018,08,07,09,36,22.30
2018,08,07,09,37,22.30
2018,08,07,09,38,22.30
2018,08,07,09,39,22.30
2018,08,07,09,40,22.40
2018,08,07,09,41,22.50
2018,08,07,09,42,22.50
2018,08,07,09,43,22.60
2018,08,07,09,44,22.60
2018,08,07,09,45,22.60
2018,08,07,09,46,22.60
2018,08,07,09,47,22.60
2018,08,07,09,48,22.70
2018,08,07,09,49,22.80
2018,08,07,09,50,22.80
2018,08,07,09,51,22.80
2018,08,07,09,52,22.80
2018,08,07,09,53,22.80
2018,08,07,09,54,22.80
2018,08,07,09,55,22.80
2018,08,07,09,56,22.80
2018,08,07,09,57,22.80
2018,08,07,09,58,22.80
2018,08,07,09,59,22.80
2018,08,07,10,00,22.70
2018,08,07,10,01,22.70
2018,08,07,10,02,22.70
2018,08,07,10,03,22.70
2018,08,07,10,04,22.70
2018,08,07,10,05,22.80
2018,08,07,10,06,22.80
2018,08,07,10,07,22.80
2018,08,07,10,08,22.90
2018,08,07,10,09,22.90
2018,08,07,10,10,23.00
2018,08,07,10,11,23.10
2018,08,07,10,12,23.10
2018,08,07,10,13,23.20
2018,08,07,10,14,23.20
2018,08,07,10,15,23.20
2018,08,07,10,16,23.20
2018,08,07,10,17,23.20
2018,08,07,10,18,23.20
2018,08,07,10,19,23.20
2018,08,07,10,20,23.30
2018,08,07,10,21,23.30
2018,08,07,10,22,23.30
2018,08,07,10,23,23.30
2018,08,07,10,24,23.30
2018,08,07,10,25,23.40
2018,08,07,10,26,23.40
2018,08,07,10,27,23.40
2018,08,07,10,28,23.50
2018,08,07,10,29,23.60
2018,08,07,10,30,23.60
2018,08,07,10,31,23.80
2018,08,07,10,32,23.90
2018,08,07,10,33,24.00
2018,08,07,10,34,24.10
2018,08,07,10,35,24.20
2018,08,07,10,36,24.20
2018,08,07,10,37,24.30
2018,08,07,10,38,24.30
2018,08,07,10,39,24.40
2018,08,07,10,40,24.40
2018,08,07,10,41,24.40
2018,08,07,10,42,24.50
2018,08,07,10,43,24.50
2018,08,07,10,44,24.60
2018,08,07,10,45,24.60
2018,08,07,10,46,24.60
2018,08,07,10,47,24.70
2018,08,07,10,48,24.70
2018,08,07,10,49,24.70
2018,08,07,10,50,24.70
2018,08,07,10,51,24.80
2018,08,07,10,52,24.70
2018,08,07,10,53,24.70
2018,08,07,10,54,24.70
2018,08,07,10,55,24.70
2018,08,07,10,56,24.70
2018,08,07,10,57,24.70
2018,08,07,10,58,24.80
2018,08,07,10,59,24.80
2018,08,07,11,00,24.90
2018,08,07,11,01,24.90
2018,08,07,11,02,24.90
2018,08,07,11,03,24.90
2018,08,07,11,04,24.90
2018,08,07,11,05,24.70
2018,08,07,11,06,24.60
2018,08,07,11,07,24.50
2018,08,07,11,08,24.50
2018,08,07,11,09,24.40
2018,08,07,11,10,24.50
2018,08,07,11,11,24.50
2018,08,07,11,12,24.60
2018,08,07,11,13,24.60
2018,08,07,11,14,24.60
2018,08,07,11,15,24.70
2018,08,07,11,16,24.70
2018,08,07,11,17,24.70
2018,08,07,11,18,24.70
2018,08,07,11,19,24.70
2018,08,07,11,20,24.70
2018,08,07,11,21,24.70
2018,08,07,11,22,24.70
2018,08,07,11,23,24.80
2018,08,07,11,24,24.80
2018,08,07,11,25,24.90
2018,08,07,11,26,24.90
2018,08,07,11,27,25.00
2018,08,07,11,28,25.10
2018,08,07,11,29,25.10
2018,08,07,11,30,25.30
2018,08,07,11,31,25.40
2018,08,07,11,32,25.50
2018,08,07,11,33,25.70
2018,08,07,11,34,25.70
2018,08,07,11,35,25.70
2018,08,07,11,36,25.70
2018,08,07,11,37,25.60
2018,08,07,11,38,25.60
2018,08,07,11,39,25.60
2018,08,07,11,40,25.60
2018,08,07,11,41,25.60
2018,08,07,11,42,25.60
2018,08,07,11,43,25.60
2018,08,07,11,44,25.60
2018,08,07,11,45,25.70
2018,08,07,11,46,25.70
2018,08,07,11,47,25.70
2018,08,07,11,48,25.80
2018,08,07,11,49,25.80
2018,08,07,11,50,25.90
2018,08,07,11,51,25.90
2018,08,07,11,52,25.90
2018,08,07,11,53,26.00
2018,08,07,11,54,26.00
2018,08,07,11,55,26.10
2018,08,07,11,56,26.10
2018,08,07,11,57,26.10
2018,08,07,11,58,26.20
2018,08,07,11,59,26.20
2018,08,07,12,00,26.20
2018,08,07,12,01,26.30
2018,08,07,12,02,26.30
2018,08,07,12,03,26.40
2018,08,07,12,04,26.50
2018,08,07,12,05,26.50
2018,08,07,12,06,26.50
2018,08,07,12,07,26.40
2018,08,07,12,08,26.40
2018,08,07,12,09,26.40
2018,08,07,12,10,26.30
2018,08,07,12,11,26.20
2018,08,07,12,12,26.20
2018,08,07,12,13,26.10
2018,08,07,12,14,26.10
2018,08,07,12,15,26.10
2018,08,07,12,16,26.10
2018,08,07,12,17,26.20
2018,08,07,12,18,26.30
2018,08,07,12,19,26.30
2018,08,07,12,20,26.30
2018,08,07,12,21,26.40
2018,08,07,12,22,26.40
2018,08,07,12,23,26.40
2018,08,07,12,24,26.40
2018,08,07,12,25,26.50
2018,08,07,12,26,26.40
2018,08,07,12,27,26.40
2018,08,07,12,28,26.50
2018,08,07,12,29,26.50
2018,08,07,12,30,26.40
2018,08,07,12,31,26.50
2018,08,07,12,32,26.50
2018,08,07,12,33,26.40
2018,08,07,12,34,26.50
2018,08,07,12,35,26.50
2018,08,07,12,36,26.40
2018,08,07,12,37,26.40
2018,08,07,12,38,26.50
2018,08,07,12,39,26.40
2018,08,07,12,40,26.50
2018,08,07,12,41,26.40
2018,08,07,12,42,26.50
2018,08,07,12,43,26.50
2018,08,07,12,44,26.50
2018,08,07,12,45,26.50
2018,08,07,12,46,26.60
2018,08,07,12,47,26.60
2018,08,07,12,48,26.60
2018,08,07,12,49,26.70
2018,08,07,12,50,26.80
2018,08,07,12,51,26.80
2018,08,07,12,52,26.80
2018,08,07,12,53,26.80
2018,08,07,12,54,26.70
2018,08,07,12,55,26.70
2018,08,07,12,56,26.70
2018,08,07,12,57,26.60
2018,08,07,12,58,26.60
2018,08,07,12,59,26.50
2018,08,07,13,00,26.50
2018,08,07,13,01,26.50
2018,08,07,13,02,26.50
2018,08,07,13,03,26.50
2018,08,07,13,04,26.40
2018,08,07,13,05,26.50
2018,08,07,13,06,26.50
2018,08,07,13,07,26.60
2018,08,07,13,08,26.70
2018,08,07,13,09,26.70
2018,08,07,13,10,26.70
2018,08,07,13,11,26.70
2018,08,07,13,12,26.70
2018,08,07,13,13,26.60
2018,08,07,13,14,26.60
2018,08,07,13,15,26.50
2018,08,07,13,16,26.50
2018,08,07,13,17,26.50
2018,08,07,13,18,26.60
2018,08,07,13,19,26.60
2018,08,07,13,20,26.60
2018,08,07,13,21,26.70
2018,08,07,13,22,26.70
2018,08,07,13,23,26.70
2018,08,07,13,24,26.80
2018,08,07,13,25,26.80
2018,08,07,13,26,26.70
2018,08,07,13,27,26.70
2018,08,07,13,28,26.70
2018,08,07,13,29,26.70
2018,08,07,13,30,26.70
2018,08,07,13,31,26.70
2018,08,07,13,32,26.70
2018,08,07,13,33,26.70
2018,08,07,13,34,26.70
2018,08,07,13,35,26.70
2018,08,07,13,36,26.70
2018,08,07,13,37,26.80
2018,08,07,13,38,26.80
2018,08,07,13,39,26.90
2018,08,07,13,40,26.90
2018,08,07,13,41,26.90
2018,08,07,13,42,27.00
2018,08,07,13,43,27.00
2018,08,07,13,44,27.10
2018,08,07,13,45,27.10
2018,08,07,13,46,27.20
2018,08,07,13,47,27.20
2018,08,07,13,48,27.30
2018,08,07,13,49,27.30
2018,08,07,13,50,27.30
2018,08,07,13,51,27.30
2018,08,07,13,52,27.30
2018,08,07,13,53,27.30
2018,08,07,13,54,27.30
2018,08,07,13,55,27.30
2018,08,07,13,56,27.30
2018,08,07,13,57,27.40
2018,08,07,13,58,27.40
2018,08,07,13,59,27.40
2018,08,07,14,00,27.40
2018,08,07,14,01,27.40
2018,08,07,14,02,27.40
2018,08,07,14,03,27.40
2018,08,07,14,04,27.30
2018,08,07,14,05,27.30
2018,08,07,14,06,27.40
2018,08,07,14,07,27.50
2018,08,07,14,08,27.50
2018,08,07,14,09,27.60
2018,08,07,14,10,27.60
2018,08,07,14,11,27.60
2018,08,07,14,12,27.70
2018,08,07,14,13,27.80
2018,08,07,14,14,27.80
2018,08,07,14,15,27.80
2018,08,07,14,16,27.90
2018,08,07,14,17,27.90
2018,08,07,14,18,27.90
2018,08,07,14,19,27.90
2018,08,07,14,20,27.90
2018,08,07,14,21,27.90
2018,08,07,14,22,27.80
2018,08,07,14,23,27.90
2018,08,07,14,24,27.90
2018,08,07,14,25,27.90
2018,08,07,14,26,27.90
2018,08,07,14,27,28.00
2018,08,07,14,28,28.00
2018,08,07,14,29,28.10
2018,08,07,14,30,28.10
2018,08,07,14,31,28.20
2018,08,07,14,32,28.20
2018,08,07,14,33,28.30
2018,08,07,14,34,28.40
2018,08,07,14,35,28.40
2018,08,07,14,36,28.50
2018,08,07,14,37,28.50
2018,08,07,14,38,28.50
2018,08,07,14,39,28.50
2018,08,07,14,40,28.40
2018,08,07,14,41,28.40
2018,08,07,14,42,28.40
2018,08,07,14,43,28.40
2018,08,07,14,44,28.30
2018,08,07,14,45,28.30
2018,08,07,14,46,28.20
2018,08,07,14,47,28.20
2018,08,07,14,48,28.20
2018,08,07,14,49,28.20
2018,08,07,14,50,28.20
2018,08,07,14,51,28.20
2018,08,07,14,52,28.30
2018,08,07,14,53,28.40
2018,08,07,14,54,28.40
2018,08,07,14,55,28.50
2018,08,07,14,56,28.50
2018,08,07,14,57,28.50
2018,08,07,14,58,28.50
2018,08,07,14,59,28.50
2018,08,07,15,00,28.60
2018,08,07,15,01,28.60
2018,08,07,15,02,28.60
2018,08,07,15,03,28.60
2018,08,07,15,04,28.60
2018,08,07,15,05,28.60
2018,08,07,15,06,28.60
2018,08,07,15,07,28.70
2018,08,07,15,08,28.70
2018,08,07,15,09,28.60
2018,08,07,15,10,28.60
2018,08,07,15,11,28.60
2018,08,07,15,12,28.50
2018,08,07,15,13,28.50
2018,08,07,15,14,28.50
2018,08,07,15,15,28.60
2018,08,07,15,16,28.60
2018,08,07,15,17,28.70
2018,08,07,15,18,28.70
2018,08,07,15,19,28.80
2018,08,07,15,20,28.80
2018,08,07,15,21,28.80
2018,08,07,15,22,28.80
2018,08,07,15,23,28.80
2018,08,07,15,24,28.80
2018,08,07,15,25,28.80
2018,08,07,15,26,28.80
2018,08,07,15,27,28.80
2018,08,07,15,28,28.90
2018,08,07,15,29,28.90
2018,08,07,15,30,28.90
2018,08,07,15,31,29.00
2018,08,07,15,32,29.10
2018,08,07,15,33,29.10
2018,08,07,15,34,29.10
2018,08,07,15,35,29.10
2018,08,07,15,36,29.10
2018,08,07,15,37,29.10
2018,08,07,15,38,29.10
2018,08,07,15,39,29.20
2018,08,07,15,40,29.20
2018,08,07,15,41,29.20
2018,08,07,15,42,29.20
2018,08,07,15,43,29.10
2018,08,07,15,44,29.20
2018,08,07,15,45,29.20
2018,08,07,15,46,29.20
2018,08,07,15,47,29.20
2018,08,07,15,48,29.30
2018,08,07,15,49,29.30
2018,08,07,15,50,29.30
2018,08,07,15,51,29.30
2018,08,07,15,52,29.40
2018,08,07,15,53,29.50
2018,08,07,15,54,29.60
2018,08,07,15,55,29.70
2018,08,07,15,56,29.80
2018,08,07,15,57,29.90
2018,08,07,15,58,30.00
2018,08,07,15,59,30.10
2018,08,07,16,00,30.20
2018,08,07,16,01,30.30
2018,08,07,16,02,30.30
2018,08,07,16,03,30.30
2018,08,07,16,04,30.30
2018,08,07,16,05,30.30
2018,08,07,16,06,30.30
2018,08,07,16,07,30.30
2018,08,07,16,08,30.30
2018,08,07,16,09,30.40
2018,08,07,16,10,30.40
2018,08,07,16,11,30.50
2018,08,07,16,12,30.40
2018,08,07,16,13,30.40
2018,08,07,16,14,30.40
2018,08,07,16,15,30.40
2018,08,07,16,16,30.40
2018,08,07,16,17,30.40
2018,08,07,16,18,30.50
2018,08,07,16,19,30.50
2018,08,07,16,20,30.60
2018,08,07,16,21,30.60
2018,08,07,16,22,30.60
2018,08,07,16,23,30.60
2018,08,07,16,24,30.60
2018,08,07,16,25,30.60
2018,08,07,16,26,30.60
2018,08,07,16,27,30.60
2018,08,07,16,28,30.60
2018,08,07,16,29,30.60
2018,08,07,16,30,30.60
2018,08,07,16,31,30.70
2018,08,07,16,32,30.70
2018,08,07,16,33,30.80
2018,08,07,16,34,30.80
2018,08,07,16,35,30.80
2018,08,07,16,36,30.80
2018,08,07,16,37,30.80
2018,08,07,16,38,30.90
2018,08,07,16,39,30.90
2018,08,07,16,40,30.90
2018,08,07,16,41,30.90
2018,08,07,16,42,30.90
2018,08,07,16,43,30.80
2018,08,07,16,44,30.80
2018,08,07,16,45,30.70
2018,08,07,16,46,30.70
2018,08,07,16,47,30.60
2018,08,07,16,48,30.60
2018,08,07,16,49,30.60
2018,08,07,16,50,30.70
2018,08,07,16,51,30.80
2018,08,07,16,52,30.80
2018,08,07,16,53,30.80
2018,08,07,16,54,30.90
2018,08,07,16,55,30.90
2018,08,07,16,56,30.90
2018,08,07,16,57,30.90
2018,08,07,16,58,30.90
2018,08,07,16,59,30.90
2018,08,07,17,00,30.90
2018,08,07,17,01,30.90
2018,08,07,17,02,30.90
2018,08,07,17,03,30.90
2018,08,07,17,04,30.90
2018,08,07,17,05,30.90
2018,08,07,17,06,31.00
2018,08,07,17,07,31.00
2018,08,07,17,08,31.10
2018,08,07,17,09,31.20
2018,08,07,17,10,31.30
2018,08,07,17,11,31.30
2018,08,07,17,12,31.30
2018,08,07,17,13,31.40
2018,08,07,17,14,31.40
2018,08,07,17,15,31.40
2018,08,07,17,16,31.40
2018,08,07,17,17,31.40
2018,08,07,17,18,31.40
2018,08,07,17,19,31.50